Wind_Speed
6 8 9 12 10 18 25 7 17 11 13 15 14 12 11 6 13 9 9 6 4 8 9 10 11 12 11 11 13 13 13 14 15 15 15 15 14 13 13 14 16 16 16 18 19 19 19 20 21
9 9 10 13 11 15 28 36 8 8 13 15 14 16 14 15 12 10 9 8 5 5 6 8 10 10 9 9 8 9 10 12 11 12 11 11 11 12 13 14 15 16 17 17 19 20 20 21 22
13 12 10 11 10 23 28 9 10 10 11 15 13 17 17 15 13 11 10 8 7 6 6 6 6 6 5 6 5 6 6 7 8 9 10 11 12 13 14 14 15 16 17 19 20 21 21 22 23
15 12 10 6 4 32 37 12 11 11 11 16 18 13 14 17 15 13 9 8 8 7 7 7 6 5 5 5 4 5 6 8 9 9 10 10 11 12 13 14 15 17 18 20 21 22 23 23 24
15 12 10 5 12 24 39 9 15 14 14 16 22 16 12 12 13 11 10 8 7 7 7 7 5 4 4 5 5 6 6 6 7 8 9 10 12 14 16 17 19 20 21 22 22 23 23 23 25
14 12 8 9 17 15 15 15 19 16 17 17 17 18 16 11 11 12 14 12 9 8 7 6 5 4 5 5 5 6 5 6 8 10 12 13 15 16 18 20 21 22 24 24 25 25 24 24 24
14 14 10 3 29 18 23 19 21 17 20 22 22 17 16 13 14 14 13 15 10 10 9 8 6 5 5 7 6 7 9 10 12 13 15 16 17 19 20 22 23 25 26 25 25 25 25 26 27
16 16 17 10 11 29 15 10 22 20 23 17 26 20 18 15 16 14 12 14 14 13 11 9 9 9 9 9 9 10 11 12 15 15 16 17 18 20 25 25 27 28 28 28 30 30 31 32 34
16 17 15 14 5 30 25 13 28 25 24 19 19 16 14 10 11 12 13 14 17 14 14 13 12 12 12 12 13 13 13 15 16 16 16 17 20 23 24 27 27 29 29 29 31 32 35 36 37
17 16 15 13 12 10 26 30 25 22 25 24 20 15 14 11 11 12 13 16 19 20 12 15 15 15 15 16 16 17 17 18 17 17 19 21 24 26 27 28 27 30 29 33 34 36 38 38 38
15 16 21 13 9 12 25 21 21 17 23 23 18 10 13 12 13 15 16 17 17 21 15 17 17 19 17 18 18 19 20 18 20 19 20 22 25 26 28 30 30 32 34 34 35 35 36 38 39
16 16 23 25 9 26 26 15 24 28 25 34 20 7 13 13 14 16 18 18 16 18 15 17 19 20 20 20 21 22 22 20 19 21 23 25 27 28 29 31 33 34 34 34 35 37 38 40 41
14 16 23 29 22 22 31 32 23 23 25 33 18 10 19 15 14 16 18 18 17 19 20 22 23 22 22 21 23 23 23 21 21 23 25 27 28 30 31 33 33 32 34 35 37 39 41 42 40
12 16 23 29 21 22 23 25 26 22 22 27 24 16 22 18 16 17 19 19 18 21 22 26 24 24 25 28 28 27 25 24 23 25 27 29 28 30 31 31 32 33 34 37 39 41 41 38 38
14 17 21 31 23 22 25 26 25 21 20 25 35 30 25 16 19 20 17 18 21 22 21 20 20 23 33 35 33 34 27 27 25 24 28 26 29 30 32 30 33 35 37 39 41 39 38 38 39
13 15 17 21 23 21 26 25 22 22 22 29 29 27 26 21 17 20 17 18 19 20 21 22 23 28 38 39 35 30 28 25 24 24 25 27 29 30 29 31 34 37 38 41 39 38 38 39 40
10 11 12 9 15 19 26 26 22 18 27 28 48 13 26 20 22 19 18 17 20 22 24 26 27 31 36 25 17 15 17 19 20 23 25 28 30 27 29 34 36 39 40 39 38 38 38 39 41
7 17 12 14 13 27 29 23 23 18 23 35 36 33 26 29 25 19 16 20 19 24 27 27 25 26 32 22 12 8 11 16 21 25 28 29 25 29 31 35 37 40 39 37 38 37 39 40 41
22 18 13 7 18 16 22 20 19 18 29 37 36 28 27 28 27 20 15 21 21 26 30 31 26 24 24 19 10 9 14 19 23 27 29 24 27 31 34 36 39 38 37 37 37 38 40 42 39
19 24 18 19 14 28 31 23 16 18 27 34 25 24 30 28 25 23 20 23 23 27 31 29 28 27 21 18 17 16 18 22 25 27 23 25 29 32 36 39 40 37 36 37 39 42 42 40 39
15 18 17 15 12 25 18 17 15 18 20 32 24 23 25 35 25 23 21 21 22 27 29 27 30 26 27 21 21 23 22 25 27 22 25 28 30 34 37 39 37 37 36 38 41 43 42 38 35
12 9 15 20 18 19 15 16 14 18 19 29 27 25 23 31 34 25 19 19 23 26 25 26 25 29 30 16 22 23 24 27 23 22 24 29 31 35 38 37 36 36 38 40 42 41 40 36 33
8 16 23 17 15 20 19 22 13 15 24 21 25 31 28 27 32 25 18 21 21 20 23 25 25 26 26 8 20 23 24 25 22 24 26 29 33 36 36 36 36 36 39 42 41 39 37 34 32
13 18 18 15 14 18 15 18 19 17 17 20 25 24 24 32 29 32 25 22 19 20 23 23 25 27 26 13 19 21 23 24 23 24 27 31 34 37 36 35 37 38 41 42 41 40 37 33 31
11 12 11 10 14 13 15 19 17 11 17 22 21 26 18 28 41 28 28 20 21 21 21 21 23 25 21 20 19 22 24 24 24 25 28 32 33 34 35 36 37 38 40 41 39 37 35 33 31
10 12 11 12 16 23 18 13 14 19 20 26 25 26 30 36 40 46 27 20 23 21 19 18 21 23 21 21 22 26 27 25 25 26 30 33 36 36 36 37 37 39 39 39 37 35 34 34 33
11 10 19 21 19 22 15 21 10 20 11 16 16 19 25 28 38 37 32 24 25 19 19 21 22 24 22 22 26 28 28 25 26 28 30 33 35 34 36 37 37 38 39 38 38 37 36 35 33
11 17 16 10 22 18 16 16 18 15 23 22 20 15 23 31 39 37 39 15 15 18 20 21 20 21 22 23 26 28 28 25 25 27 29 32 34 34 36 36 37 38 39 39 38 36 36 34 33
16 24 18 22 27 20 17 11 37 18 5 19 21 16 29 36 43 43 54 11 12 17 19 18 20 20 23 24 26 26 26 24 26 27 29 31 33 34 35 37 38 38 38 38 37 35 34 33 33
22 28 23 25 19 25 27 26 26 25 27 20 32 34 36 43 44 45 42 26 18 17 15 16 19 22 22 21 24 25 24 24 26 28 30 32 33 35 36 37 37 37 38 37 35 34 33 33 34
Wind_Direction
296 299 305 298 300 295 303 14 110 343 9 358 347 324 332 305 289 320 332 300 254 268 255 258 254 254 256 267 264 263 273 282 285 286 287 287 283 287 290 292 291 290 291 293 291 288 288 287 285
287 288 291 291 302 308 299 318 15 355 356 350 336 320 329 322 313 324 318 316 307 297 275 262 257 255 248 249 248 259 263 272 282 287 288 287 288 289 294 293 292 293 293 294 293 292 290 288 285
279 282 281 289 317 290 295 293 18 20 354 336 338 324 330 329 316 311 316 312 307 306 290 277 268 260 263 262 262 266 279 283 284 287 289 290 295 299 302 301 299 297 299 297 293 290 289 288 286
269 273 267 277 47 300 308 92 6 346 340 325 318 309 313 324 321 316 314 314 317 307 289 280 278 286 271 265 267 278 284 289 293 295 292 294 294 295 295 297 298 298 297 295 295 292 290 286 283
259 258 259 285 14 280 283 346 321 300 309 314 317 316 313 332 325 311 304 306 307 303 295 287 267 260 271 275 280 280 284 286 286 285 291 298 302 305 305 305 303 302 300 298 296 294 292 290 288
240 235 234 98 269 280 336 324 302 292 294 302 317 324 310 334 341 322 310 302 309 313 308 291 283 287 282 277 280 282 292 289 296 301 305 308 308 304 304 305 304 304 304 305 303 300 298 297 295
227 219 187 209 282 292 265 286 291 280 289 301 303 317 312 302 320 327 320 316 317 315 306 296 291 282 277 284 288 303 301 308 306 308 309 308 308 308 308 309 308 306 309 311 308 306 304 301 299
218 214 200 189 270 300 272 311 278 282 275 301 310 330 319 300 315 326 326 327 329 319 308 305 298 292 293 291 298 300 304 310 308 306 309 311 312 312 311 311 313 314 313 312 307 304 302 301 297
219 215 209 130 3 279 292 275 286 276 273 282 295 323 315 295 307 324 315 319 323 320 311 305 302 301 298 298 300 304 309 307 304 307 307 308 309 310 311 312 312 309 310 309 305 304 302 300 300
225 218 190 136 276 274 281 286 276 269 271 273 285 313 300 292 305 313 320 328 328 315 328 300 308 304 305 303 304 305 311 310 308 307 310 314 314 312 313 313 313 310 309 308 308 307 304 304 302
230 216 182 156 266 223 278 259 275 281 278 258 255 317 298 289 301 310 315 326 329 314 337 313 309 304 302 300 300 303 305 307 309 307 308 312 309 311 314 311 313 312 312 310 308 304 302 301 300
229 215 205 177 199 243 225 264 265 266 264 270 285 352 321 295 299 307 315 319 315 312 319 307 303 303 301 302 303 302 302 304 303 303 308 309 309 312 313 315 314 313 310 309 307 305 304 302 302
227 222 212 201 194 256 228 235 258 271 275 279 157 6 320 300 296 303 311 315 316 317 319 313 304 301 299 298 297 298 298 299 302 302 305 307 311 314 315 314 314 311 308 308 307 306 306 306 305
239 229 217 211 239 249 244 242 249 264 276 280 277 291 298 299 290 300 311 318 325 319 318 318 306 299 304 302 292 289 291 296 296 300 303 306 309 313 314 314 311 309 310 309 309 310 309 309 308
239 235 230 222 230 232 248 245 257 267 266 280 287 284 292 283 287 297 313 319 324 316 311 336 336 312 313 307 293 286 281 286 291 294 299 306 311 314 314 312 311 312 312 313 313 312 312 310 308
245 243 242 227 240 242 250 251 254 262 263 271 269 269 291 286 284 298 312 318 318 319 317 322 325 316 310 299 290 277 267 274 287 295 303 310 311 312 311 312 313 315 315 315 314 313 313 312 312
254 266 253 251 251 267 254 255 248 245 275 278 274 295 289 282 287 296 305 320 303 310 317 324 327 319 322 295 294 251 253 275 293 303 308 309 307 309 314 315 318 316 317 317 316 316 315 313 311
327 306 306 243 276 237 267 258 247 240 256 261 258 285 293 278 287 292 313 314 296 308 312 313 320 324 333 292 274 265 281 295 305 308 306 304 307 314 318 318 318 319 317 315 317 317 315 313 312
244 199 208 250 238 230 251 261 232 231 253 263 276 278 273 277 280 292 302 302 295 303 306 314 303 309 316 334 314 294 305 307 309 306 305 308 315 317 320 320 320 319 317 319 320 319 317 314 312
251 222 222 199 222 244 242 262 255 239 243 264 270 266 261 273 283 288 286 284 286 295 304 306 308 296 304 302 301 301 306 307 307 308 308 314 316 320 322 321 319 318 321 322 321 319 316 313 310
250 239 237 247 242 272 281 261 227 261 247 265 276 264 268 274 281 277 278 278 277 288 294 306 312 294 291 291 304 304 302 305 310 308 314 317 321 323 322 321 320 321 323 322 321 318 315 312 307
254 287 278 236 231 246 285 276 262 257 250 264 291 271 270 273 282 269 257 271 275 276 284 302 310 311 283 264 296 299 306 307 308 308 314 317 322 323 323 321 321 323 322 322 321 319 317 313 308
227 236 223 247 259 255 249 252 254 250 264 292 273 293 296 291 271 273 258 267 264 266 286 303 309 307 287 286 296 303 305 304 307 311 318 321 323 324 322 322 322 324 325 323 320 319 318 315 310
243 252 266 271 274 266 296 262 244 241 270 253 243 259 276 292 281 275 271 268 261 269 284 295 303 303 300 321 303 308 309 310 311 316 321 323 325 325 323 323 324 326 326 323 322 321 319 316 313
283 273 283 284 271 317 264 260 267 256 238 271 260 279 281 267 267 226 254 256 262 271 282 287 292 301 303 318 310 315 314 313 313 318 320 321 327 323 324 326 327 327 328 324 323 322 319 316 312
297 238 273 263 258 274 258 261 239 236 243 245 274 266 258 265 275 285 251 247 256 266 276 281 286 296 296 307 309 310 315 314 314 317 320 324 329 328 328 328 329 331 328 325 324 323 320 315 313
237 258 245 254 259 274 280 284 330 303 250 258 247 261 271 274 275 282 262 238 238 259 272 274 283 290 294 300 304 303 310 312 313 317 319 325 328 328 329 330 331 330 328 327 326 326 322 318 314
272 234 267 253 251 242 239 259 266 253 235 243 216 244 248 258 267 280 216 211 232 256 270 277 280 282 286 292 300 302 301 308 311 314 317 325 327 332 331 332 331 330 329 329 327 325 321 317 315
259 246 226 243 245 243 239 242 240 234 193 238 209 240 245 255 260 264 279 292 230 256 270 272 274 278 286 289 295 295 297 304 309 312 314 321 326 332 332 334 332 330 329 327 325 324 320 316 314
271 274 275 261 263 255 249 220 302 303 265 235 247 248 251 251 267 279 276 264 249 246 259 263 276 278 282 286 292 290 297 305 310 309 313 321 327 330 332 333 331 329 328 326 324 323 320 316 313
Height
5901 5901 5900 5897 5898 5888 5871 5885 5880 5895 5892 5889 5888 5885 5885 5887 5884 5880 5883 5885 5887 5887 5887 5887 5887 5887 5887 5888 5887 5887 5888 5888 5888 5888 5887 5887 5886 5886 5885 5885 5884 5884 5883 5883 5882 5881 5881 5880 5880
5899 5899 5899 5896 5897 5891 5888 5888 5884 5892 5891 5890 5888 5885 5886 5884 5882 5881 5884 5884 5886 5884 5885 5885 5885 5886 5886 5886 5885 5885 5885 5886 5886 5886 5885 5885 5885 5884 5882 5882 5881 5881 5880 5880 5880 5879 5878 5877 5876
5896 5897 5898 5895 5893 5886 5888 5889 5890 5889 5890 5890 5890 5886 5884 5886 5884 5882 5882 5884 5884 5883 5884 5884 5883 5884 5883 5884 5883 5883 5883 5883 5884 5884 5884 5883 5882 5881 5881 5880 5880 5878 5877 5877 5875 5875 5873 5873 5873
5893 5895 5896 5897 5895 5884 5883 5879 5889 5891 5891 5889 5887 5887 5885 5883 5883 5883 5883 5883 5883 5883 5883 5883 5882 5882 5882 5882 5882 5881 5881 5882 5883 5882 5882 5881 5881 5879 5879 5878 5877 5876 5874 5873 5872 5871 5870 5868 5867
5891 5892 5894 5896 5898 5898 5891 5876 5889 5894 5892 5889 5885 5885 5884 5884 5883 5882 5881 5881 5882 5882 5883 5883 5882 5882 5882 5882 5881 5882 5881 5881 5881 5881 5881 5879 5878 5877 5876 5874 5873 5872 5871 5869 5867 5866 5864 5863 5862
5888 5890 5892 5896 5896 5892 5891 5891 5891 5891 5889 5887 5886 5885 5884 5883 5882 5882 5881 5881 5881 5881 5882 5882 5881 5881 5881 5880 5880 5880 5879 5880 5879 5879 5878 5876 5875 5874 5872 5871 5869 5868 5867 5864 5862 5861 5859 5858 5856
5885 5887 5890 5895 5893 5896 5897 5895 5891 5890 5887 5884 5883 5886 5883 5882 5882 5881 5880 5880 5882 5881 5881 5881 5880 5880 5879 5879 5879 5878 5879 5878 5878 5877 5875 5874 5872 5871 5869 5867 5866 5864 5862 5860 5858 5856 5854 5853 5851
5882 5884 5886 5891 5899 5893 5892 5891 5888 5890 5885 5885 5877 5883 5882 5881 5881 5880 5880 5879 5880 5881 5880 5880 5879 5879 5878 5878 5877 5877 5876 5876 5876 5874 5872 5871 5869 5868 5864 5863 5861 5858 5857 5855 5853 5852 5850 5848 5845
5878 5881 5885 5891 5899 5890 5888 5890 5885 5889 5886 5883 5880 5882 5880 5880 5880 5879 5878 5878 5878 5880 5878 5878 5878 5877 5877 5877 5876 5875 5874 5874 5873 5871 5869 5868 5866 5864 5863 5860 5859 5855 5854 5852 5849 5847 5844 5842 5838
5875 5879 5884 5889 5896 5897 5889 5890 5884 5885 5884 5880 5880 5879 5879 5878 5878 5878 5877 5876 5874 5873 5881 5875 5875 5876 5876 5875 5876 5875 5873 5872 5871 5869 5867 5865 5863 5861 5859 5858 5856 5852 5851 5847 5844 5840 5836 5833 5831
5873 5877 5881 5886 5894 5893 5883 5887 5881 5880 5881 5878 5874 5879 5876 5877 5877 5876 5875 5875 5873 5868 5874 5873 5875 5874 5875 5874 5873 5873 5872 5871 5869 5867 5865 5863 5861 5859 5856 5853 5851 5848 5844 5841 5838 5835 5831 5828 5824
5870 5874 5877 5879 5884 5885 5886 5884 5882 5881 5880 5869 5857 5871 5875 5875 5875 5874 5873 5873 5873 5871 5874 5872 5871 5870 5871 5870 5870 5870 5869 5868 5867 5864 5862 5860 5857 5855 5852 5848 5845 5842 5838 5835 5832 5828 5825 5821 5817
5868 5870 5873 5876 5877 5878 5879 5880 5880 5877 5873 5859 5838 5864 5871 5872 5873 5872 5871 5871 5871 5870 5871 5870 5869 5867 5866 5866 5865 5866 5866 5865 5864 5861 5858 5856 5853 5850 5848 5844 5840 5838 5834 5830 5826 5822 5817 5813 5809
5865 5867 5869 5870 5875 5875 5874 5876 5875 5878 5870 5867 5868 5858 5868 5868 5869 5869 5868 5868 5869 5868 5868 5865 5864 5864 5863 5863 5861 5861 5862 5862 5860 5857 5854 5851 5848 5845 5843 5840 5836 5833 5829 5824 5819 5815 5810 5805 5801
5862 5863 5864 5866 5868 5870 5871 5872 5874 5876 5875 5870 5861 5864 5865 5864 5864 5866 5866 5866 5866 5866 5864 5864 5862 5860 5858 5856 5856 5856 5856 5858 5856 5855 5850 5847 5843 5841 5837 5835 5832 5828 5823 5818 5812 5807 5802 5798 5793
5859 5860 5861 5865 5866 5868 5868 5869 5872 5873 5872 5870 5863 5857 5864 5863 5861 5861 5863 5864 5864 5863 5862 5862 5860 5856 5853 5849 5848 5849 5852 5854 5852 5850 5847 5843 5839 5837 5834 5830 5826 5821 5816 5811 5806 5800 5796 5791 5787
5858 5860 5860 5863 5866 5866 5865 5866 5869 5869 5866 5868 5829 5846 5860 5861 5858 5859 5860 5862 5862 5861 5860 5859 5856 5853 5847 5843 5843 5844 5848 5849 5848 5845 5842 5839 5835 5832 5829 5823 5819 5814 5810 5804 5799 5794 5789 5785 5781
5862 5860 5862 5864 5868 5866 5864 5863 5864 5866 5864 5865 5865 5862 5859 5856 5854 5857 5858 5858 5859 5859 5858 5857 5854 5851 5846 5840 5841 5843 5845 5845 5843 5839 5837 5834 5831 5826 5823 5818 5814 5808 5804 5798 5793 5788 5783 5778 5772
5854 5857 5861 5866 5866 5864 5863 5860 5863 5863 5860 5857 5859 5860 5850 5853 5850 5853 5856 5855 5855 5855 5854 5853 5852 5851 5848 5844 5842 5842 5842 5840 5838 5835 5832 5829 5825 5821 5817 5813 5808 5804 5797 5792 5787 5782 5777 5770 5765
5850 5853 5855 5858 5860 5856 5857 5857 5858 5860 5859 5855 5856 5854 5845 5842 5848 5848 5851 5852 5852 5852 5851 5850 5848 5847 5846 5844 5843 5840 5838 5836 5834 5831 5827 5824 5821 5817 5811 5807 5801 5797 5792 5786 5781 5775 5769 5764 5758
5847 5848 5850 5854 5856 5853 5852 5853 5855 5856 5856 5851 5852 5852 5851 5844 5847 5846 5846 5846 5847 5847 5846 5846 5845 5843 5842 5842 5839 5836 5833 5831 5829 5827 5823 5819 5816 5811 5807 5802 5797 5791 5786 5780 5774 5768 5761 5756 5752
5843 5846 5846 5847 5849 5852 5853 5851 5853 5853 5854 5849 5847 5848 5849 5844 5839 5843 5844 5842 5841 5841 5841 5842 5840 5838 5836 5837 5836 5833 5829 5827 5825 5822 5820 5815 5811 5806 5802 5797 5791 5786 5781 5775 5767 5761 5754 5750 5746
5841 5840 5841 5842 5843 5844 5847 5847 5850 5851 5847 5846 5845 5842 5841 5843 5834 5836 5837 5836 5836 5837 5837 5837 5836 5833 5830 5832 5831 5828 5825 5823 5820 5817 5814 5811 5806 5802 5797 5792 5787 5781 5774 5768 5760 5753 5748 5743 5739
5836 5835 5837 5838 5840 5840 5841 5842 5844 5848 5849 5845 5843 5840 5839 5836 5835 5829 5833 5830 5831 5832 5832 5832 5830 5830 5829 5827 5825 5823 5821 5818 5815 5812 5809 5806 5801 5796 5792 5787 5781 5775 5768 5761 5754 5749 5742 5737 5733
5833 5834 5835 5838 5839 5838 5838 5840 5840 5842 5845 5841 5840 5840 5840 5833 5823 5809 5824 5826 5826 5827 5827 5828 5826 5824 5824 5822 5820 5818 5817 5814 5811 5808 5805 5802 5798 5793 5788 5782 5776 5769 5762 5756 5749 5742 5736 5731 5727
5832 5833 5836 5835 5835 5830 5836 5835 5839 5838 5840 5840 5841 5840 5833 5829 5822 5813 5819 5815 5820 5822 5822 5823 5822 5821 5819 5817 5815 5813 5812 5809 5807 5804 5800 5796 5792 5788 5783 5777 5770 5764 5757 5750 5744 5737 5732 5726 5722
5829 5831 5830 5829 5831 5831 5834 5834 5832 5829 5834 5831 5833 5832 5826 5821 5813 5811 5802 5803 5810 5815 5817 5818 5817 5815 5814 5812 5811 5809 5807 5805 5802 5799 5795 5792 5788 5783 5778 5772 5765 5758 5751 5745 5739 5733 5728 5722 5717
5823 5825 5826 5827 5823 5824 5828 5832 5821 5825 5823 5825 5821 5821 5815 5810 5797 5796 5756 5789 5800 5808 5812 5813 5812 5810 5809 5808 5806 5804 5803 5800 5798 5795 5792 5788 5783 5779 5773 5767 5760 5752 5746 5740 5734 5728 5721 5716 5711
5819 5817 5813 5821 5819 5816 5818 5824 5814 5812 5813 5812 5804 5799 5800 5799 5796 5795 5773 5792 5796 5803 5806 5808 5807 5806 5805 5804 5802 5800 5798 5796 5793 5790 5787 5783 5778 5774 5767 5761 5754 5748 5741 5734 5727 5722 5717 5712 5706
5815 5813 5814 5815 5815 5811 5813 5813 5796 5801 5805 5798 5803 5801 5792 5790 5792 5796 5796 5798 5795 5799 5800 5800 5800 5801 5800 5799 5797 5795 5793 5791 5789 5786 5782 5779 5774 5768 5762 5756 5749 5743 5736 5728 5722 5715 5711 5706 5700